Alexandra Park, Ontario

5:03 AM EST on February 22, 2018 (GMT -0500)
Alexandra Park

Weather History for 71508 - September, 2013

Change the Weather History Date:

Monday, September 23, 2013

  Actual Average Record
Temperature  
Mean Temperature 54 °F -  
Max Temperature 61 °F - - ()
Min Temperature 47 °F - - ()
Degree Days  
Heating Degree Days 11    
Growing Degree Days 4 (Base 50)    
Moisture  
Dew Point 40 °F    
Average Humidity 61    
Maximum Humidity 80    
Minimum Humidity 31    
Precipitation  
Precipitation 0.00 in - - ()
Sea Level Pressure  
Sea Level Pressure 30.14 in    
Wind  
Wind Speed - ()    
Max Wind Speed -    
Max Gust Speed -    
T = Trace of Precipitation, MM = Missing Value Source: Averaged Metar Reports

Daily Weather History Graph

Daily Weather History Graph

Search for Another Location

Airport or City:

Trip Planner

Search our weather history database for the weather conditions in past years. The results will help you decide how hot, cold, wet, or windy it might be!

Date:

Astronomy

Sep. 23, 2013 Rise Set
Actual Time 7:06 AM EDT 7:12 PM EDT
Civil Twilight 6:37 AM EDT 7:41 PM EDT
Nautical Twilight 6:04 AM EDT 8:14 PM EDT
Astronomical Twilight 5:29 AM EDT 8:48 PM EDT
Moon 9:34 PM EDT (9/23) 11:32 AM EDT (9/23)
Length of Visible Light 13h 03m
Length of Day
12h 06m
Waning Gibbous, 81% of the Moon is Illuminated
Sep 23
Waning Gibbous
Sep 26
Last Quarter
Oct 4
New
Oct 11
First Quarter
Oct 18
Full

Hourly Weather History & Observations

Time (EDT) Temp. Dew Point Humidity Pressure Visibility Wind Dir Wind Speed Gust Speed Precip Events Conditions
12:00 AM 50.7 °F 41.7 °F 71% 30.07 in - North - - N/A   Unknown
1:00 AM 49.6 °F 41.2 °F 73% 30.08 in - North - - N/A   Unknown
2:00 AM 49 °F 42 °F 71% 30.09 in - Calm Calm - -  
2:00 AM 49.1 °F 42.4 °F 78% 30.09 in - North - - N/A   Unknown
3:00 AM 48.4 °F 42.4 °F 80% 30.10 in - North - - N/A   Unknown
4:00 AM 50.2 °F 43.2 °F 77% 30.10 in - North - - N/A   Unknown
5:00 AM 50.4 °F 42.8 °F 75% 30.11 in - North - - N/A   Unknown
6:00 AM 50.0 °F 43.0 °F 77% 30.12 in - North - - N/A   Unknown
7:00 AM 49.1 °F 41.0 °F 74% 30.14 in - North - - N/A   Unknown
8:00 AM 49 °F 40 °F 62% 30.15 in - Calm Calm - -  
8:00 AM 48.6 °F 39.9 °F 72% 30.15 in - North - - N/A   Unknown
9:00 AM 50.5 °F 38.7 °F 64% 30.17 in - North - - N/A   Unknown
10:00 AM 52.7 °F 38.5 °F 58% 30.18 in - North - - N/A   Unknown
11:00 AM 55.8 °F 40.5 °F 56% 30.18 in - North - - N/A   Unknown
12:00 PM 56.7 °F 39.0 °F 52% 30.18 in - North - - N/A   Unknown
1:00 PM 57.7 °F 38.7 °F 49% 30.17 in - North - - N/A   Unknown
2:00 PM 60 °F 38 °F 31% 30.16 in - Calm Calm - -  
2:00 PM 59.9 °F 37.6 °F 44% 30.16 in - North - - N/A   Unknown
3:00 PM 61.0 °F 37.6 °F 42% 30.14 in - North - - N/A   Unknown
4:00 PM 61.2 °F 39.9 °F 46% 30.13 in - North - - N/A   Unknown
5:00 PM 60.3 °F 38.5 °F 44% 30.13 in - North - - N/A   Unknown
6:00 PM 59.9 °F 38.1 °F 44% 30.13 in - North - - N/A   Unknown
7:00 PM 57.6 °F 37.0 °F 46% 30.14 in - North - - N/A   Unknown
8:00 PM 55 °F 40 °F 46% 30.15 in - Calm Calm - -  
8:00 PM 55.0 °F 40.3 °F 58% 30.15 in - North - - N/A   Unknown
9:00 PM 52.9 °F 40.8 °F 64% 30.15 in - North - - N/A   Unknown
10:00 PM 51.3 °F 41.2 °F 68% 30.15 in - North - - N/A   Unknown
11:00 PM 50.0 °F 42.1 °F 74% 30.16 in - North - - N/A   Unknown